M I D A S
Marine Information and Data Acquisition System
Tripno 1712 of the Zeeleeuw from 2009-06-18 03:42:29 to 2009-06-18 13:24:37
Back to CruiseResearch ActivitiesStationsMapUnderway DataData graphs

EquipmentUnitsComment
TimeDGPSUTC
LatitudeDGPSDM.mWGS84
LongitudeDGPSDM.mWGS84
HeadingGyrodeg 
SOGDGPSknotsSpeed over ground
COGDGPSdegCourse over ground
DepthEcho soundermeters200 kHz
Missing or incorrect values are displayed as -999
Navigation data collected by the RV Zeeleeuw from 2009-06-18 03:35:18 to 2009-06-18 13:55:10
                                                                                    Next 1000 lines
Time Latitude Longitude Heading SOG COG Depth
2009-06-18 03:35:28 51°13.661 2°55.957 110.6 0.8 288 5.8
2009-06-18 03:35:33 51°13.662 2°55.955 110.6 1.1 291 5.8
2009-06-18 03:35:38 51°13.662 2°55.952 110.7 1.5 290 5.9
2009-06-18 03:35:43 51°13.664 2°55.948 111.1 1.9 291 5.9
2009-06-18 03:35:49 51°13.665 2°55.942 111.8 2.3 292 -999
2009-06-18 03:35:54 51°13.666 2°55.937 112.5 2.7 293 -999
2009-06-18 03:36:00 51°13.668 2°55.93 112.7 2.9 294 -999
2009-06-18 03:36:06 51°13.67 2°55.923 112.8 3 294 -999
2009-06-18 03:36:12 51°13.672 2°55.915 112.6 3.2 293 -999
2009-06-18 03:36:17 51°13.674 2°55.908 112.1 3.2 292 -999
2009-06-18 03:36:21 51°13.676 2°55.903 111.1 3.3 291 -999
2009-06-18 03:36:27 51°13.678 2°55.895 110.2 3.2 290 -999
2009-06-18 03:36:32 51°13.679 2°55.888 109.3 3.3 290 -999
2009-06-18 03:36:37 51°13.68 2°55.881 109 3.3 289 -999
2009-06-18 03:36:41 51°13.681 2°55.876 109 3.3 289 -999
2009-06-18 03:36:47 51°13.682 2°55.868 109 3.3 288 -999
2009-06-18 03:36:52 51°13.684 2°55.861 109.1 3.3 289 -999
2009-06-18 03:36:57 51°13.686 2°55.854 108.6 3.3 288 -999
2009-06-18 03:37:01 51°13.687 2°55.848 108.1 3.2 288 -999
2009-06-18 03:37:07 51°13.688 2°55.84 107.6 3.2 287 -999
2009-06-18 03:37:12 51°13.69 2°55.833 106.9 3.2 287 -999
2009-06-18 03:37:17 51°13.691 2°55.826 106.3 3.2 286 -999
2009-06-18 03:37:21 51°13.692 2°55.821 105.9 3.3 286 -999
2009-06-18 03:37:27 51°13.694 2°55.812 105.3 3.3 285 -999
2009-06-18 03:37:32 51°13.695 2°55.806 104.7 3.2 286 -999
2009-06-18 03:37:37 51°13.696 2°55.799 104.2 3 285 -999
2009-06-18 03:37:41 51°13.696 2°55.794 103.6 2.9 286 -999
2009-06-18 03:37:47 51°13.698 2°55.787 103.2 2.7 285 -999
2009-06-18 03:37:52 51°13.699 2°55.782 102.8 2.6 286 -999
2009-06-18 03:37:57 51°13.7 2°55.777 102.7 2.2 288 -999
2009-06-18 03:38:01 51°13.7 2°55.775 102.4 1.3 289 -999
2009-06-18 03:38:07 51°13.701 2°55.773 101 0.6 307 -999
2009-06-18 03:38:11 51°13.701 2°55.773 97.7 0.3 22 11.8
2009-06-18 03:38:16 51°13.702 2°55.774 93.2 0.5 54 11.8
2009-06-18 03:38:21 51°13.702 2°55.775 88.3 0.5 49 11.7
2009-06-18 03:38:26 51°13.703 2°55.776 82.1 0.5 55 11.7
2009-06-18 03:38:31 51°13.703 2°55.776 77.8 0.3 36 11.8
2009-06-18 03:38:36 51°13.704 2°55.776 74.8 0.1 326 12
2009-06-18 03:38:41 51°13.704 2°55.775 72.4 0.3 277 11.9
2009-06-18 03:38:45 51°13.704 2°55.774 69.3 0.6 251 11.9
2009-06-18 03:38:50 51°13.703 2°55.772 67.8 0.8 253 12.1
2009-06-18 03:38:55 51°13.703 2°55.77 66.2 1.1 251 12.1
2009-06-18 03:39:00 51°13.702 2°55.768 64.7 1.1 249 12.3
2009-06-18 03:39:05 51°13.701 2°55.766 62.9 1.1 249 12.5
2009-06-18 03:39:09 51°13.701 2°55.764 61.3 1 246 12.6
2009-06-18 03:39:14 51°13.7 2°55.762 60 1 247 -999
2009-06-18 03:39:20 51°13.7 2°55.76 58.8 0.5 257 -999
2009-06-18 03:39:25 51°13.7 2°55.76 57.5 0.1 328 -999
2009-06-18 03:39:31 51°13.701 2°55.76 54.3 0.4 28 -999
2009-06-18 03:39:37 51°13.701 2°55.761 49.6 0.6 31 -999
2009-06-18 03:39:41 51°13.702 2°55.762 46.1 0.7 33 4.5
2009-06-18 03:39:46 51°13.703 2°55.763 42.1 0.8 32 4.6
2009-06-18 03:39:51 51°13.704 2°55.764 39.8 0.8 32 4.6
2009-06-18 03:39:56 51°13.705 2°55.765 36.1 0.7 28 4.6
2009-06-18 03:40:01 51°13.705 2°55.765 33.2 0.5 33 4.5
2009-06-18 03:40:05 51°13.705 2°55.766 30.9 0.1 174 13.1
2009-06-18 03:40:10 51°13.705 2°55.765 28.5 0.5 195 13.1
2009-06-18 03:40:16 51°13.703 2°55.765 25.6 1.1 196 13.1
2009-06-18 03:40:20 51°13.702 2°55.764 23.3 1.2 199 12.9
2009-06-18 03:40:25 51°13.7 2°55.763 21.3 1.2 194 12.7
2009-06-18 03:40:30 51°13.699 2°55.762 20.1 1.1 198 12.5
2009-06-18 03:40:35 51°13.697 2°55.762 19.2 1 193 9.3
2009-06-18 03:40:40 51°13.696 2°55.761 18.9 0.6 199 -999
2009-06-18 03:40:46 51°13.696 2°55.761 18.6 0.1 28 -999
2009-06-18 03:40:52 51°13.697 2°55.761 16.4 0.6 7 -999
2009-06-18 03:40:57 51°13.699 2°55.762 12.2 1.2 5 -999
2009-06-18 03:41:01 51°13.701 2°55.762 5.8 1.6 -999 -999
2009-06-18 03:41:07 51°13.704 2°55.762 0.8 1.9 355 4.5
2009-06-18 03:41:12 51°13.707 2°55.761 355.6 2.2 347 4.5
2009-06-18 03:41:16 51°13.71 2°55.76 350.2 2.5 343 13
2009-06-18 03:41:21 51°13.713 2°55.757 345 2.7 336 13.1
2009-06-18 03:41:26 51°13.717 2°55.754 338.6 3.3 334 12.8
2009-06-18 03:41:31 51°13.722 2°55.749 333.7 4 327 12.7
2009-06-18 03:41:36 51°13.727 2°55.744 329.3 4.6 326 12.1
2009-06-18 03:41:41 51°13.733 2°55.737 326.2 5 324 11.9
2009-06-18 03:41:45 51°13.737 2°55.731 324.3 5.6 323 11.7
2009-06-18 03:41:50 51°13.744 2°55.724 323.5 6 325 11.6
2009-06-18 03:41:55 51°13.752 2°55.716 324.4 6.4 325 10.5
2009-06-18 03:42:00 51°13.759 2°55.707 325.1 6.8 325 10
2009-06-18 03:42:05 51°13.767 2°55.698 325.2 7 324 9.9
2009-06-18 03:42:09 51°13.774 2°55.691 325.1 7.3 325 9.7
2009-06-18 03:42:15 51°13.784 2°55.679 325.2 7.5 325 9.9
2009-06-18 03:42:19 51°13.791 2°55.672 326.1 7.7 328 10.2
2009-06-18 03:42:24 51°13.8 2°55.662 327.3 7.9 326 10.2
2009-06-18 03:42:29 51°13.81 2°55.653 328.2 8 328 10.3
2009-06-18 03:42:34 51°13.819 2°55.644 329.8 8.1 329 10.3
2009-06-18 03:42:39 51°13.83 2°55.635 331.4 8.2 331 10.1
2009-06-18 03:42:44 51°13.84 2°55.626 332.6 8.3 332 10.2
2009-06-18 03:42:48 51°13.848 2°55.619 333.8 8.4 333 10
2009-06-18 03:42:53 51°13.858 2°55.611 335.2 8.4 334 10.5
2009-06-18 03:42:58 51°13.869 2°55.603 335.5 8.5 334 10.7
2009-06-18 03:43:03 51°13.88 2°55.594 335.4 8.7 333 10.4
2009-06-18 03:43:08 51°13.89 2°55.586 335.5 8.8 334 10.5
2009-06-18 03:43:13 51°13.901 2°55.577 335.7 8.8 333 10.5
2009-06-18 03:43:18 51°13.913 2°55.568 335.2 8.9 333 10.5
2009-06-18 03:43:23 51°13.924 2°55.56 335.9 8.9 335 10.5
2009-06-18 03:43:28 51°13.935 2°55.552 336.7 8.9 335 10.6
2009-06-18 03:43:33 51°13.946 2°55.543 335.7 9 334 10.6
2009-06-18 03:43:38 51°13.957 2°55.534 335.7 9 335 10.6
2009-06-18 03:43:43 51°13.968 2°55.525 336.4 9 335 10.5
2009-06-18 03:43:48 51°13.98 2°55.517 336.6 9 334 10.5
2009-06-18 03:43:53 51°13.991 2°55.508 336.8 9 336 10.1
2009-06-18 03:43:57 51°13 2°55.501 337.2 9.1 335 9.9
2009-06-18 03:44:03 51°14.014 2°55.492 337.3 9.1 336 9.9
2009-06-18 03:44:08 51°14.025 2°55.483 337.2 9.1 335 9.9
2009-06-18 03:44:13 51°14.037 2°55.475 337.2 9.2 336 10.2
2009-06-18 03:44:18 51°14.049 2°55.466 337.2 9.2 335 10.3
2009-06-18 03:44:23 51°14.06 2°55.457 336.6 9.2 334 10.3
2009-06-18 03:44:28 51°14.071 2°55.448 336.7 9.3 335 10.1
2009-06-18 03:44:33 51°14.083 2°55.44 336.9 9.3 335 10.1
2009-06-18 03:44:38 51°14.094 2°55.43 336.6 9.3 334 10.1
2009-06-18 03:44:43 51°14.106 2°55.422 336.8 9.3 335 10.2
2009-06-18 03:44:48 51°14.118 2°55.413 337.2 9.3 335 10.2
2009-06-18 03:44:53 51°14.13 2°55.405 336.8 9.3 334 10.3
2009-06-18 03:44:58 51°14.141 2°55.395 335.4 9.2 332 10.3
2009-06-18 03:45:03 51°14.153 2°55.386 334.6 9.3 332 10.2
2009-06-18 03:45:08 51°14.163 2°55.375 332.5 9.3 328 10.2
2009-06-18 03:45:13 51°14.174 2°55.364 330 9.3 327 10.2
2009-06-18 03:45:18 51°14.185 2°55.352 328.5 9.4 325 10.2
2009-06-18 03:45:23 51°14.195 2°55.34 326.7 9.4 324 10.2
2009-06-18 03:45:28 51°14.206 2°55.327 325.2 9.4 322 10.3
2009-06-18 03:45:33 51°14.216 2°55.314 324.1 9.5 322 10.3
2009-06-18 03:45:38 51°14.226 2°55.301 323 9.6 320 10.3
2009-06-18 03:45:43 51°14.236 2°55.287 321.5 9.6 319 10.2
2009-06-18 03:45:48 51°14.247 2°55.273 321.1 9.7 319 10.3
2009-06-18 03:45:53 51°14.256 2°55.258 320.5 9.8 317 10.2
2009-06-18 03:45:58 51°14.266 2°55.243 319 9.9 315 10.3
2009-06-18 03:46:03 51°14.276 2°55.227 317.3 10 314 10.3
2009-06-18 03:46:08 51°14.286 2°55.211 316.3 10.2 313 10.1
2009-06-18 03:46:13 51°14.295 2°55.194 314.6 10.3 312 10.1
2009-06-18 03:46:18 51°14.305 2°55.177 314.4 10.4 314 10.2
2009-06-18 03:46:23 51°14.315 2°55.161 315.1 10.5 313 10.1
2009-06-18 03:46:28 51°14.325 2°55.143 313.8 10.6 311 10.2
2009-06-18 03:46:33 51°14.334 2°55.125 311.7 10.7 310 10.3
2009-06-18 03:46:38 51°14.344 2°55.106 310.9 10.7 310 10.2
2009-06-18 03:46:43 51°14.353 2°55.088 310.7 10.8 309 10.3
2009-06-18 03:46:48 51°14.362 2°55.069 309.4 10.8 308 10.4
2009-06-18 03:46:53 51°14.372 2°55.051 309.3 10.8 311 10.2
2009-06-18 03:46:58 51°14.382 2°55.033 312.3 10.8 313 10.1
2009-06-18 03:47:03 51°14.392 2°55.016 314.9 10.9 313 10.1
2009-06-18 03:47:08 51°14.402 2°54.998 314.4 10.9 310 10.1
2009-06-18 03:47:13 51°14.412 2°54.98 312.7 10.9 310 10.2
2009-06-18 03:47:17 51°14.42 2°54.965 312.2 11 310 10.3
2009-06-18 03:47:23 51°14.432 2°54.942 312.4 11 310 10.2
2009-06-18 03:47:28 51°14.441 2°54.923 312.8 11.1 309 10.4
2009-06-18 03:47:33 51°14.451 2°54.904 312.2 11.1 309 10.3
2009-06-18 03:47:37 51°14.459 2°54.889 312.2 11.2 309 10.3
2009-06-18 03:47:43 51°14.47 2°54.865 311.5 11.2 307 10.4
2009-06-18 03:47:48 51°14.479 2°54.845 310.5 11.2 306 10.2
2009-06-18 03:47:53 51°14.488 2°54.825 309.1 11.2 304 10.4
2009-06-18 03:47:58 51°14.496 2°54.804 308.4 11.2 304 10.5
2009-06-18 03:48:03 51°14.505 2°54.783 307.2 11.3 301 10.3
2009-06-18 03:48:08 51°14.512 2°54.761 305.5 11.3 300 10.4
2009-06-18 03:48:13 51°14.52 2°54.739 303 11.3 297 10.3
2009-06-18 03:48:18 51°14.526 2°54.716 301.1 11.3 297 10.2
2009-06-18 03:48:23 51°14.533 2°54.694 299.8 11.3 294 10.3
2009-06-18 03:48:28 51°14.539 2°54.671 298.2 11.3 294 10.1
2009-06-18 03:48:33 51°14.546 2°54.648 297.2 11.3 293 10.2
2009-06-18 03:48:38 51°14.552 2°54.625 296.1 11.4 292 10.2
2009-06-18 03:48:43 51°14.557 2°54.601 295.4 11.3 291 10.1
2009-06-18 03:48:48 51°14.563 2°54.578 294.6 11.4 290 10.1
2009-06-18 03:48:53 51°14.567 2°54.554 292.6 11.4 287 10.2
2009-06-18 03:48:58 51°14.572 2°54.529 290.3 11.5 286 10.3
2009-06-18 03:49:03 51°14.576 2°54.504 288.9 11.5 284 10.2
2009-06-18 03:49:08 51°14.579 2°54.48 287.7 11.5 284 10.3
2009-06-18 03:49:13 51°14.583 2°54.455 286.5 11.5 283 10.4
2009-06-18 03:49:18 51°14.586 2°54.43 285.5 11.5 281 10.5
2009-06-18 03:49:23 51°14.589 2°54.405 284 11.5 279 10.5
2009-06-18 03:49:28 51°14.591 2°54.38 282.5 11.6 278 10.4
2009-06-18 03:49:33 51°14.593 2°54.354 281.1 11.6 278 10.4
2009-06-18 03:49:38 51°14.595 2°54.328 280.2 11.6 277 10.4
2009-06-18 03:49:43 51°14.596 2°54.303 279.5 11.6 276 10.5
2009-06-18 03:49:48 51°14.598 2°54.277 279.2 11.6 277 10.5
2009-06-18 03:49:53 51°14.601 2°54.252 280.5 11.6 279 10.5
2009-06-18 03:49:58 51°14.603 2°54.227 281.2 11.6 277 10.6
2009-06-18 03:50:03 51°14.606 2°54.201 281.1 11.6 279 10.7
2009-06-18 03:50:08 51°14.608 2°54.176 281.1 11.6 279 10.6
2009-06-18 03:50:13 51°14.611 2°54.15 281.7 11.6 280 10.6
2009-06-18 03:50:18 51°14.613 2°54.125 282 11.6 279 10.7
2009-06-18 03:50:23 51°14.616 2°54.099 282.3 11.6 280 10.6
2009-06-18 03:50:28 51°14.619 2°54.075 282.5 11.6 280 10.7
2009-06-18 03:50:33 51°14.622 2°54.05 283.2 11.6 280 10.8
2009-06-18 03:50:38 51°14.625 2°54.024 284 11.6 281 10.6
2009-06-18 03:50:43 51°14.628 2°53.999 284.2 11.6 281 10.7
2009-06-18 03:50:48 51°14.631 2°53.975 284.6 11.6 282 10.8
2009-06-18 03:50:53 51°14.634 2°53.949 285.2 11.6 281 10.8
2009-06-18 03:50:57 51°14.637 2°53.929 285.3 11.5 282 10.9
2009-06-18 03:51:03 51°14.641 2°53.899 285.5 11.5 282 10.7
2009-06-18 03:51:08 51°14.644 2°53.874 285.5 11.5 282 10.8
2009-06-18 03:51:13 51°14.647 2°53.849 285.1 11.5 281 10.6
2009-06-18 03:51:18 51°14.65 2°53.824 284.6 11.5 280 10.4
2009-06-18 03:51:23 51°14.653 2°53.799 284 11.5 280 10.4
2009-06-18 03:51:28 51°14.656 2°53.775 283.9 11.5 281 10.2
2009-06-18 03:51:33 51°14.659 2°53.75 284.6 11.4 281 10
2009-06-18 03:51:38 51°14.662 2°53.725 285.1 11.5 281 9.9
2009-06-18 03:51:43 51°14.665 2°53.7 285.8 11.4 282 9.9
2009-06-18 03:51:48 51°14.669 2°53.675 286 11.5 282 9.8
2009-06-18 03:51:53 51°14.672 2°53.65 286 11.4 282 9.7
2009-06-18 03:51:58 51°14.675 2°53.626 285.8 11.5 282 9.6
2009-06-18 03:52:03 51°14.678 2°53.601 286 11.4 282 9.4
2009-06-18 03:52:08 51°14.682 2°53.576 286.2 11.4 282 9.3
2009-06-18 03:52:13 51°14.685 2°53.551 286.4 11.4 282 9.2
2009-06-18 03:52:18 51°14.688 2°53.526 286.4 11.4 282 9.2
2009-06-18 03:52:23 51°14.691 2°53.502 286.5 11.4 282 9.1
2009-06-18 03:52:28 51°14.695 2°53.477 286.1 11.4 283 9
2009-06-18 03:52:33 51°14.698 2°53.452 286.3 11.4 283 9.1
2009-06-18 03:52:38 51°14.701 2°53.427 286.5 11.4 282 9.1
2009-06-18 03:52:43 51°14.705 2°53.402 286.1 11.5 282 9.1
2009-06-18 03:52:48 51°14.708 2°53.378 286 11.4 283 9.1
2009-06-18 03:52:53 51°14.712 2°53.353 286.3 11.4 283 9.1
2009-06-18 03:52:58 51°14.715 2°53.329 286.5 11.5 282 9.3
2009-06-18 03:53:03 51°14.719 2°53.304 286.2 11.5 282 9.1
2009-06-18 03:53:08 51°14.722 2°53.28 286.1 11.5 282 9.2
2009-06-18 03:53:13 51°14.726 2°53.255 285.9 11.5 282 9.2
2009-06-18 03:53:18 51°14.729 2°53.23 285.7 11.5 282 9.2
2009-06-18 03:53:23 51°14.733 2°53.205 285.8 11.5 283 9.2
2009-06-18 03:53:28 51°14.736 2°53.181 286.1 11.4 283 9.2
2009-06-18 03:53:33 51°14.74 2°53.157 286.2 11.5 283 9.2
2009-06-18 03:53:38 51°14.743 2°53.132 286.6 11.4 283 9.2
2009-06-18 03:53:43 51°14.747 2°53.106 286.3 11.4 282 9.2
2009-06-18 03:53:48 51°14.75 2°53.081 286.1 11.4 282 9.3
2009-06-18 03:53:53 51°14.753 2°53.057 285.9 11.4 283 9.3
2009-06-18 03:53:58 51°14.757 2°53.032 286 11.4 282 9.4
2009-06-18 03:54:03 51°14.76 2°53.007 285.5 11.4 281 9.5
2009-06-18 03:54:08 51°14.763 2°52.983 285.3 11.4 282 9.4
2009-06-18 03:54:13 51°14.767 2°52.959 285.8 11.4 282 9.3
2009-06-18 03:54:18 51°14.77 2°52.934 285.7 11.4 282 9.4
2009-06-18 03:54:23 51°14.773 2°52.909 285.7 11.4 282 9.4
2009-06-18 03:54:28 51°14.777 2°52.884 286 11.4 282 9.5
2009-06-18 03:54:33 51°14.78 2°52.86 286 11.4 283 9.5
2009-06-18 03:54:37 51°14.783 2°52.84 286.2 11.4 283 9.5
2009-06-18 03:54:43 51°14.787 2°52.811 286.6 11.5 282 9.6
2009-06-18 03:54:48 51°14.791 2°52.786 286.4 11.4 283 9.4
2009-06-18 03:54:53 51°14.794 2°52.762 286.2 11.4 283 9.5
2009-06-18 03:54:58 51°14.797 2°52.737 286.1 11.4 283 9.6
2009-06-18 03:55:03 51°14.801 2°52.712 286.7 11.4 283 9.5
2009-06-18 03:55:08 51°14.804 2°52.688 286.4 11.4 283 9.4
2009-06-18 03:55:13 51°14.808 2°52.664 286.3 11.4 283 9.6
2009-06-18 03:55:17 51°14.811 2°52.644 286.4 11.4 282 9.7
2009-06-18 03:55:23 51°14.814 2°52.614 285.7 11.4 281 9.5
2009-06-18 03:55:28 51°14.817 2°52.59 285 11.4 281 9.7
2009-06-18 03:55:33 51°14.82 2°52.565 284.6 11.4 281 9.7
2009-06-18 03:55:38 51°14.823 2°52.54 284.5 11.4 281 9.6
2009-06-18 03:55:43 51°14.826 2°52.515 284.2 11.4 282 9.7
2009-06-18 03:55:48 51°14.829 2°52.49 284.8 11.4 282 9.7
2009-06-18 03:55:53 51°14.833 2°52.466 285.5 11.4 282 9.7
2009-06-18 03:55:58 51°14.836 2°52.441 285.8 11.5 283 9.7
2009-06-18 03:56:03 51°14.84 2°52.416 286.2 11.4 283 9.7
2009-06-18 03:56:08 51°14.844 2°52.392 286.9 11.4 283 9.8
2009-06-18 03:56:13 51°14.848 2°52.368 286.5 11.4 283 9.9
2009-06-18 03:56:17 51°14.851 2°52.348 286.3 11.4 282 9.7
2009-06-18 03:56:23 51°14.855 2°52.319 286.2 11.4 284 9.8
2009-06-18 03:56:28 51°14.858 2°52.294 286.8 11.3 283 9.8
2009-06-18 03:56:33 51°14.861 2°52.27 286.8 11.4 283 10
2009-06-18 03:56:37 51°14.864 2°52.25 286.5 11.4 283 9.9
2009-06-18 03:56:43 51°14.868 2°52.221 286.7 11.4 283 9.9
2009-06-18 03:56:48 51°14.872 2°52.196 286.8 11.4 283 10
2009-06-18 03:56:53 51°14.877 2°52.172 286.6 11.4 283 10
2009-06-18 03:56:58 51°14.88 2°52.147 286.8 11.5 283 10.1
2009-06-18 03:57:03 51°14.884 2°52.122 287 11.5 283 10.1
2009-06-18 03:57:08 51°14.888 2°52.097 286.9 11.4 283 10
2009-06-18 03:57:13 51°14.891 2°52.072 286.2 11.4 282 10.3
2009-06-18 03:57:18 51°14.893 2°52.047 285.6 11.4 282 10.2
2009-06-18 03:57:23 51°14.896 2°52.023 285.3 11.4 281 10.3
2009-06-18 03:57:28 51°14.9 2°51.998 285.3 11.4 283 10.3
2009-06-18 03:57:33 51°14.903 2°51.974 286.1 11.4 283 10.2
2009-06-18 03:57:38 51°14.907 2°51.95 286.3 11.4 282 10.3
2009-06-18 03:57:43 51°14.912 2°51.926 286.4 11.4 282 10.4
2009-06-18 03:57:48 51°14.915 2°51.901 286.6 11.5 282 10.4
2009-06-18 03:57:53 51°14.919 2°51.877 286.5 11.4 283 10.4
2009-06-18 03:57:58 51°14.922 2°51.851 286.3 11.5 282 10.5
2009-06-18 03:58:03 51°14.926 2°51.826 286.3 11.5 283 10.6
2009-06-18 03:58:08 51°14.93 2°51.801 286.4 11.4 283 10.6
2009-06-18 03:58:13 51°14.933 2°51.777 286.4 11.4 283 10.7
2009-06-18 03:58:18 51°14.936 2°51.753 286.7 11.5 281 10.7
2009-06-18 03:58:23 51°14.939 2°51.728 285.8 11.5 282 10.7
2009-06-18 03:58:28 51°14.942 2°51.704 285.7 11.4 282 10.8
2009-06-18 03:58:33 51°14.945 2°51.68 286.2 11.4 283 10.8
2009-06-18 03:58:38 51°14.949 2°51.656 286.3 11.5 282 11
2009-06-18 03:58:43 51°14.952 2°51.631 285.4 11.4 281 11.1
2009-06-18 03:58:48 51°14.955 2°51.607 285.1 11.4 282 11.1
2009-06-18 03:58:53 51°14.958 2°51.582 285.5 11.5 281 11.2
2009-06-18 03:58:58 51°14.961 2°51.557 285.6 11.5 282 11.2
2009-06-18 03:59:03 51°14.964 2°51.532 285.8 11.5 282 11.3
2009-06-18 03:59:08 51°14.968 2°51.507 286.2 11.6 282 11.3
2009-06-18 03:59:13 51°14.971 2°51.482 286.4 11.6 282 11.4
2009-06-18 03:59:18 51°14.974 2°51.458 286.2 11.5 282 11.4
2009-06-18 03:59:23 51°14.977 2°51.432 285.3 11.5 281 11.4
2009-06-18 03:59:28 51°14.98 2°51.408 285.4 11.5 282 11.5
2009-06-18 03:59:33 51°14.983 2°51.383 286 11.5 281 11.5
2009-06-18 03:59:38 51°14.987 2°51.358 286.2 11.5 282 11.5
2009-06-18 03:59:43 51°14.99 2°51.333 286.3 11.5 282 11.7
2009-06-18 03:59:48 51°14.994 2°51.308 286.4 11.5 282 11.6
2009-06-18 03:59:53 51°14.997 2°51.283 286.4 11.5 282 11.7
2009-06-18 03:59:58 51°15 2°51.258 286.5 11.6 282 11.6
2009-06-18 04:00:03 51°15.003 2°51.234 286.7 11.6 282 11.8
2009-06-18 04:00:08 51°15.007 2°51.209 286.8 11.6 282 11.8
2009-06-18 04:00:13 51°15.01 2°51.184 286.8 11.5 282 11.8
2009-06-18 04:00:18 51°15.014 2°51.159 286.6 11.5 282 12
2009-06-18 04:00:23 51°15.017 2°51.134 286.3 11.6 281 12
2009-06-18 04:00:28 51°15.02 2°51.109 286 11.6 282 12
2009-06-18 04:00:33 51°15.023 2°51.084 286.3 11.6 282 12
2009-06-18 04:00:38 51°15.026 2°51.059 286.7 11.6 281 12
2009-06-18 04:00:43 51°15.029 2°51.033 285.5 11.6 281 12.2
2009-06-18 04:00:48 51°15.032 2°51.008 285.5 11.6 281 12.2
2009-06-18 04:00:53 51°15.035 2°50.983 285.8 11.6 281 12.3
2009-06-18 04:00:58 51°15.039 2°50.958 286.3 11.6 282 12.2
2009-06-18 04:01:04 51°15.042 2°50.928 286.5 11.6 281 12.3
2009-06-18 04:01:08 51°15.045 2°50.908 286.1 11.6 280 12.2
2009-06-18 04:01:13 51°15.048 2°50.882 285.4 11.6 280 12.4
2009-06-18 04:01:18 51°15.05 2°50.856 284.9 11.6 280 12.3
2009-06-18 04:01:23 51°15.053 2°50.831 284.8 11.6 280 12.4
2009-06-18 04:01:28 51°15.056 2°50.806 285.2 11.5 280 12.4
2009-06-18 04:01:33 51°15.059 2°50.781 284.8 11.5 280 12.5
2009-06-18 04:01:38 51°15.062 2°50.756 284.7 11.5 281 12.4
2009-06-18 04:01:44 51°15.066 2°50.726 285.2 11.5 281 12.5
2009-06-18 04:01:48 51°15.069 2°50.706 286.2 11.5 284 12.5
2009-06-18 04:01:53 51°15.072 2°50.681 287.9 11.5 283 12.5
2009-06-18 04:01:58 51°15.076 2°50.657 288.2 11.6 284 12.6
2009-06-18 04:02:03 51°15.08 2°50.632 288.6 11.6 285 12.5
2009-06-18 04:02:08 51°15.085 2°50.608 290.1 11.6 286 12.6
2009-06-18 04:02:13 51°15.089 2°50.583 290.5 11.6 286 12.6
2009-06-18 04:02:18 51°15.093 2°50.559 290.5 11.5 286 12.6
2009-06-18 04:02:23 51°15.098 2°50.535 290.5 11.5 287 12.6
2009-06-18 04:02:28 51°15.103 2°50.51 290.8 11.5 287 12.5
2009-06-18 04:02:33 51°15.107 2°50.486 291.2 11.5 287 12.7
2009-06-18 04:02:38 51°15.112 2°50.462 291.8 11.5 288 12.7
2009-06-18 04:02:43 51°15.117 2°50.438 292.5 11.5 288 12.8
2009-06-18 04:02:48 51°15.122 2°50.413 292.7 11.5 288 12.8
2009-06-18 04:02:53 51°15.127 2°50.389 292.5 11.6 287 12.5
2009-06-18 04:02:58 51°15.132 2°50.364 292.5 11.5 289 12.8
2009-06-18 04:03:03 51°15.137 2°50.34 292.8 11.5 288 12.7
2009-06-18 04:03:08 51°15.142 2°50.316 293.2 11.5 288 12.8
2009-06-18 04:03:13 51°15.147 2°50.292 292.9 11.5 288 12.8
2009-06-18 04:03:18 51°15.151 2°50.268 292.6 11.5 287 12.8
2009-06-18 04:03:23 51°15.156 2°50.244 292.3 11.5 287 12.8
2009-06-18 04:03:28 51°15.161 2°50.219 292 11.6 287 12.7
2009-06-18 04:03:33 51°15.165 2°50.195 291.7 11.5 287 12.7
2009-06-18 04:03:38 51°15.17 2°50.17 291.9 11.5 287 13
2009-06-18 04:03:43 51°15.175 2°50.146 291.8 11.5 287 12.9
2009-06-18 04:03:48 51°15.18 2°50.122 291.3 11.5 288 12.8
2009-06-18 04:03:53 51°15.185 2°50.097 291.8 11.5 288 12.9
2009-06-18 04:03:58 51°15.19 2°50.074 292 11.5 288 12.8
2009-06-18 04:04:04 51°15.196 2°50.045 291.9 11.5 288 13
2009-06-18 04:04:08 51°15.2 2°50.026 292 11.5 288 13
2009-06-18 04:04:13 51°15.205 2°50.002 292.1 11.5 288 13
2009-06-18 04:04:18 51°15.21 2°49.977 292 11.5 288 13
2009-06-18 04:04:23 51°15.214 2°49.953 292.4 11.5 289 12.9
2009-06-18 04:04:28 51°15.219 2°49.929 292.7 11.4 289 12.8
2009-06-18 04:04:33 51°15.225 2°49.905 293.3 11.4 289 12.9
2009-06-18 04:04:38 51°15.23 2°49.881 293 11.4 288 12.9
2009-06-18 04:04:43 51°15.234 2°49.857 292 11.4 287 12.9
2009-06-18 04:04:48 51°15.24 2°49.833 292 11.5 288 12.8
2009-06-18 04:04:53 51°15.245 2°49.809 292.5 11.5 288 13.1
2009-06-18 04:04:58 51°15.249 2°49.785 292 11.5 287 13
2009-06-18 04:05:03 51°15.254 2°49.761 291.9 11.5 288 12.8
2009-06-18 04:05:08 51°15.259 2°49.736 292 11.5 287 12.9
2009-06-18 04:05:13 51°15.264 2°49.712 292.1 11.5 288 13
2009-06-18 04:05:18 51°15.268 2°49.687 292.5 11.5 287 12.8
2009-06-18 04:05:23 51°15.273 2°49.663 291.9 11.6 287 13
2009-06-18 04:05:28 51°15.278 2°49.639 291.2 11.6 287 12.9
2009-06-18 04:05:33 51°15.282 2°49.614 290.5 11.6 286 12.9
2009-06-18 04:05:38 51°15.287 2°49.589 290 11.6 287 12.9
2009-06-18 04:05:43 51°15.291 2°49.564 290.3 11.5 287 12.9
2009-06-18 04:05:48 51°15.296 2°49.54 291 11.5 287 13.1
2009-06-18 04:05:53 51°15.3 2°49.515 291 11.5 287 13
2009-06-18 04:05:58 51°15.305 2°49.491 291.4 11.5 288 13.1
2009-06-18 04:06:03 51°15.31 2°49.466 291.9 11.5 288 13.1
2009-06-18 04:06:08 51°15.315 2°49.442 292.1 11.5 288 13
2009-06-18 04:06:13 51°15.319 2°49.418 291.7 11.5 286 13.1
2009-06-18 04:06:18 51°15.324 2°49.393 290.9 11.5 287 13.1
2009-06-18 04:06:23 51°15.329 2°49.369 291.1 11.5 287 13
2009-06-18 04:06:28 51°15.333 2°49.345 291.3 11.5 287 13
2009-06-18 04:06:33 51°15.338 2°49.321 291.6 11.5 288 13.1
2009-06-18 04:06:38 51°15.343 2°49.297 291.9 11.4 287 13.1
2009-06-18 04:06:43 51°15.348 2°49.272 291.6 11.5 286 13.1
2009-06-18 04:06:48 51°15.352 2°49.248 290.7 11.5 287 13.2
2009-06-18 04:06:53 51°15.357 2°49.223 291.1 11.5 287 13.1
2009-06-18 04:06:58 51°15.361 2°49.199 291.5 11.5 287 13.2
2009-06-18 04:07:03 51°15.366 2°49.175 291.9 11.4 287 13.3
2009-06-18 04:07:08 51°15.371 2°49.151 291.9 11.4 287 13.2
2009-06-18 04:07:13 51°15.375 2°49.127 291.8 11.4 287 13.3
2009-06-18 04:07:18 51°15.38 2°49.103 290.9 11.4 286 13.2
2009-06-18 04:07:23 51°15.384 2°49.078 290.4 11.3 286 13.1
2009-06-18 04:07:28 51°15.389 2°49.054 290.4 11.3 287 13.2
2009-06-18 04:07:33 51°15.393 2°49.03 291 11.4 287 13.2
2009-06-18 04:07:38 51°15.398 2°49.006 291.1 11.4 286 13.1
2009-06-18 04:07:43 51°15.402 2°48.982 290.7 11.4 286 13
2009-06-18 04:07:48 51°15.406 2°48.958 290.1 11.4 286 13
2009-06-18 04:07:53 51°15.411 2°48.934 290.4 11.4 287 12.9
2009-06-18 04:07:58 51°15.416 2°48.91 290.7 11.4 286 12.8
2009-06-18 04:08:03 51°15.42 2°48.886 290.4 11.4 286 12.5
2009-06-18 04:08:08 51°15.424 2°48.861 290 11.4 285 12.4
2009-06-18 04:08:13 51°15.428 2°48.837 290.3 11.4 287 12.3
2009-06-18 04:08:18 51°15.433 2°48.813 291.1 11.4 287 12.2
2009-06-18 04:08:23 51°15.437 2°48.788 290.7 11.4 287 11.8
2009-06-18 04:08:28 51°15.442 2°48.765 291.2 11.4 287 11.8
2009-06-18 04:08:33 51°15.447 2°48.741 291.9 11.4 288 11.6
2009-06-18 04:08:38 51°15.452 2°48.717 292.2 11.4 288 11.3
2009-06-18 04:08:43 51°15.457 2°48.694 292.6 11.3 289 11.1
2009-06-18 04:08:48 51°15.462 2°48.67 293.1 11.3 289 11.1
2009-06-18 04:08:53 51°15.467 2°48.646 293.3 11.3 289 10.8
2009-06-18 04:08:58 51°15.472 2°48.622 293.6 11.3 289 10.8
2009-06-18 04:09:03 51°15.477 2°48.599 294.3 11.3 289 10.8
2009-06-18 04:09:08 51°15.483 2°48.575 294.5 11.3 290 10.6
2009-06-18 04:09:13 51°15.488 2°48.552 294.8 11.3 290 10.6
2009-06-18 04:09:18 51°15.494 2°48.528 295 11.3 291 10.7
2009-06-18 04:09:23 51°15.499 2°48.505 295.6 11.3 290 10.5
2009-06-18 04:09:28 51°15.504 2°48.481 295.4 11.3 290 10.5
2009-06-18 04:09:33 51°15.51 2°48.458 294.9 11.3 291 10.5
2009-06-18 04:09:38 51°15.516 2°48.434 295.3 11.3 290 10.5
2009-06-18 04:09:43 51°15.521 2°48.411 294.8 11.3 290 10.6
2009-06-18 04:09:48 51°15.526 2°48.387 294.6 11.3 290 10.5
2009-06-18 04:09:53 51°15.532 2°48.365 294.8 11.3 290 10.6
2009-06-18 04:09:58 51°15.537 2°48.341 294.8 11.3 289 10.7
2009-06-18 04:10:04 51°15.543 2°48.313 294.2 11.3 289 10.6
2009-06-18 04:10:08 51°15.547 2°48.294 294 11.4 290 10.7
2009-06-18 04:10:13 51°15.553 2°48.27 294.7 11.3 291 10.9
2009-06-18 04:10:18 51°15.559 2°48.247 295.3 11.3 290 10.7
2009-06-18 04:10:23 51°15.564 2°48.223 294.6 11.4 289 10.9
2009-06-18 04:10:28 51°15.569 2°48.2 294.2 11.4 289 11
2009-06-18 04:10:33 51°15.574 2°48.175 293.8 11.4 288 11.1
2009-06-18 04:10:38 51°15.579 2°48.151 293.5 11.4 289 11.2
2009-06-18 04:10:44 51°15.585 2°48.122 293.5 11.4 288 11.3
2009-06-18 04:10:48 51°15.589 2°48.103 293.3 11.4 288 11.4
2009-06-18 04:10:53 51°15.594 2°48.079 293.2 11.4 288 11.5
2009-06-18 04:10:58 51°15.599 2°48.056 293.2 11.4 289 11.6
2009-06-18 04:11:03 51°15.604 2°48.032 293.5 11.4 288 11.7
2009-06-18 04:11:08 51°15.609 2°48.008 293.5 11.4 288 11.8
2009-06-18 04:11:13 51°15.614 2°47.984 293.5 11.4 289 11.9
2009-06-18 04:11:18 51°15.62 2°47.96 294.4 11.4 289 12
2009-06-18 04:11:23 51°15.625 2°47.936 294.3 11.5 289 12
2009-06-18 04:11:28 51°15.63 2°47.912 293.8 11.5 288 12.4
2009-06-18 04:11:33 51°15.635 2°47.888 293.3 11.4 289 12.3
2009-06-18 04:11:38 51°15.64 2°47.864 293.5 11.5 289 12.4
2009-06-18 04:11:43 51°15.645 2°47.839 293.9 11.4 289 12.6
2009-06-18 04:11:48 51°15.65 2°47.816 293.9 11.4 289 12.9
2009-06-18 04:11:53 51°15.656 2°47.792 294 11.5 289 12.9
2009-06-18 04:11:58 51°15.661 2°47.768 293.7 11.5 289 13.2
2009-06-18 04:12:03 51°15.666 2°47.744 293.6 11.4 289 13.1
2009-06-18 04:12:08 51°15.671 2°47.72 294 11.4 292 13.5
2009-06-18 04:12:13 51°15.677 2°47.697 295.6 11.4 291 13.6
2009-06-18 04:12:18 51°15.683 2°47.673 295.6 11.5 291 13.8
2009-06-18 04:12:23 51°15.689 2°47.649 296.1 11.4 293 13.9
2009-06-18 04:12:28 51°15.695 2°47.626 297.4 11.4 293 14.2
2009-06-18 04:12:33 51°15.701 2°47.603 297.2 11.4 291 14.2
2009-06-18 04:12:38 51°15.707 2°47.579 296.7 11.4 293 14.2
2009-06-18 04:12:43 51°15.713 2°47.556 297.5 11.4 293 14.5
2009-06-18 04:12:48 51°15.719 2°47.533 297.7 11.4 293 14.6
2009-06-18 04:12:53 51°15.725 2°47.509 297.4 11.4 292 14.7
2009-06-18 04:12:58 51°15.731 2°47.486 296.9 11.4 292 15
2009-06-18 04:13:04 51°15.739 2°47.458 297.4 11.4 294 14.9
2009-06-18 04:13:08 51°15.744 2°47.44 298.2 11.4 293 15.1
2009-06-18 04:13:13 51°15.75 2°47.416 297.5 11.4 292 15.2
2009-06-18 04:13:18 51°15.756 2°47.393 296.9 11.4 293 15.2
2009-06-18 04:13:23 51°15.762 2°47.369 297.2 11.4 293 15.3
2009-06-18 04:13:28 51°15.768 2°47.346 297.7 11.4 293 15.5
2009-06-18 04:13:33 51°15.774 2°47.323 297.7 11.4 293 15.5
2009-06-18 04:13:38 51°15.78 2°47.299 297.6 11.4 293 15.7
2009-06-18 04:13:43 51°15.786 2°47.276 297.5 11.4 293 15.8
2009-06-18 04:13:48 51°15.792 2°47.253 297.1 11.4 292 16.1
2009-06-18 04:13:53 51°15.798 2°47.229 296.9 11.4 293 16
2009-06-18 04:13:58 51°15.805 2°47.206 297.5 11.4 294 16.3
2009-06-18 04:14:03 51°15.811 2°47.183 298.2 11.4 294 16.4
2009-06-18 04:14:08 51°15.818 2°47.16 298.4 11.4 294 16.6
2009-06-18 04:14:13 51°15.824 2°47.137 297.6 11.4 293 16.6
2009-06-18 04:14:18 51°15.83 2°47.114 297.4 11.4 293 16.7
2009-06-18 04:14:23 51°15.836 2°47.091 297.2 11.4 293 16.6
2009-06-18 04:14:28 51°15.842 2°47.067 297 11.4 293 17
2009-06-18 04:14:33 51°15.849 2°47.044 297 11.4 293 16.8
2009-06-18 04:14:38 51°15.855 2°47.021 296.9 11.4 293 16.9
2009-06-18 04:14:43 51°15.861 2°46.998 297 11.3 292 16.9
2009-06-18 04:14:48 51°15.867 2°46.975 296.9 11.3 294 16.9
2009-06-18 04:14:53 51°15.873 2°46.952 297.3 11.3 293 17
2009-06-18 04:14:58 51°15.88 2°46.929 297.5 11.3 294 16.8
2009-06-18 04:15:03 51°15.886 2°46.907 298.4 11.3 295 16.9
2009-06-18 04:15:08 51°15.893 2°46.884 299 11.3 295 16.9
2009-06-18 04:15:13 51°15.9 2°46.862 299.9 11.3 297 17.1
2009-06-18 04:15:18 51°15.906 2°46.839 300.2 11.3 295 16.8
2009-06-18 04:15:23 51°15.913 2°46.817 300.2 11.3 297 17
2009-06-18 04:15:28 51°15.92 2°46.794 300.7 11.3 296 16.8
2009-06-18 04:15:33 51°15.927 2°46.772 300.9 11.3 297 16.7
2009-06-18 04:15:38 51°15.934 2°46.75 300.6 11.2 296 16.7
2009-06-18 04:15:43 51°15.941 2°46.728 300.9 11.2 298 16.3
2009-06-18 04:15:48 51°15.949 2°46.707 301.8 11.2 297 16.4
2009-06-18 04:15:53 51°15.956 2°46.685 301.3 11.2 296 16.5
2009-06-18 04:15:58 51°15.963 2°46.663 301.2 11.3 297 16.3
2009-06-18 04:16:03 51°15.97 2°46.641 301.7 11.2 298 16
2009-06-18 04:16:08 51°15.978 2°46.62 302.2 11.3 297 15.7
2009-06-18 04:16:13 51°15.984 2°46.597 301.5 11.3 296 15.6
2009-06-18 04:16:18 51°15.991 2°46.574 301.1 11.3 296 15.3
2009-06-18 04:16:23 51°15.998 2°46.552 301.2 11.3 297 15.2
2009-06-18 04:16:28 51°16.005 2°46.53 301.6 11.3 297 14.6
2009-06-18 04:16:33 51°16.013 2°46.508 301.9 11.3 297 14
2009-06-18 04:16:38 51°16.02 2°46.486 301.9 11.3 297 13.4
2009-06-18 04:16:43 51°16.027 2°46.464 301.6 11.3 297 13.1
2009-06-18 04:16:48 51°16.034 2°46.442 301.5 11.2 297 13.1
2009-06-18 04:16:53 51°16.041 2°46.419 301.2 11.2 297 13
2009-06-18 04:16:58 51°16.048 2°46.396 301 11.2 297 13.2
2009-06-18 04:17:03 51°16.054 2°46.374 300.9 11.2 297 13.3
2009-06-18 04:17:08 51°16.062 2°46.352 301.3 11.2 297 13.3
2009-06-18 04:17:13 51°16.068 2°46.329 300.9 11.3 295 13.2
2009-06-18 04:17:18 51°16.075 2°46.307 300.6 11.3 297 13.1
2009-06-18 04:17:23 51°16.082 2°46.285 301 11.2 296 13
2009-06-18 04:17:28 51°16.089 2°46.263 300.3 11.2 296 12.6
2009-06-18 04:17:33 51°16.096 2°46.241 300.6 11.2 296 12.8
2009-06-18 04:17:38 51°16.103 2°46.219 300.1 11.2 295 12.5
2009-06-18 04:17:43 51°16.109 2°46.196 299.8 11.2 295 12.6
2009-06-18 04:17:48 51°16.116 2°46.174 299.6 11.2 296 12.3
2009-06-18 04:17:53 51°16.123 2°46.151 300.2 11.2 296 11.9
2009-06-18 04:17:58 51°16.13 2°46.129 300.7 11.2 297 11.9
2009-06-18 04:18:03 51°16.136 2°46.107 301.1 11.1 297 11.7
2009-06-18 04:18:08 51°16.143 2°46.085 301.4 11.1 297 11.8
2009-06-18 04:18:13 51°16.15 2°46.063 301.1 11.1 296 11.6
2009-06-18 04:18:18 51°16.157 2°46.041 300.9 11.1 296 11.7
2009-06-18 04:18:23 51°16.164 2°46.019 300.7 11.1 297 11.5
2009-06-18 04:18:28 51°16.171 2°45.997 301.3 11.1 297 11.3
2009-06-18 04:18:33 51°16.178 2°45.976 301.3 11.1 296 11.5
2009-06-18 04:18:38 51°16.184 2°45.954 301.2 11.1 295 11.3
2009-06-18 04:18:43 51°16.191 2°45.931 300 11.1 296 11.3
2009-06-18 04:18:48 51°16.198 2°45.909 300.5 11.1 295 11.4
2009-06-18 04:18:53 51°16.204 2°45.887 300.6 11.1 296 11.1
2009-06-18 04:18:58 51°16.211 2°45.865 300.4 11.1 295 11
2009-06-18 04:19:04 51°16.219 2°45.838 300.2 11.1 295 10.9
2009-06-18 04:19:08 51°16.224 2°45.82 300.3 11.1 295 10.7
2009-06-18 04:19:13 51°16.231 2°45.798 300.6 11.1 295 10.6
2009-06-18 04:19:18 51°16.237 2°45.776 300.8 11.1 295 10.5
2009-06-18 04:19:23 51°16.244 2°45.754 300.5 11.1 295 10.8
2009-06-18 04:19:28 51°16.25 2°45.732 300.1 11.1 295 10.9
2009-06-18 04:19:33 51°16.257 2°45.71 300.6 11.1 297 10.8
2009-06-18 04:19:38 51°16.265 2°45.689 302.9 10.9 299 10.7
2009-06-18 04:19:44 51°16.273 2°45.663 303.6 11 299 10.8
2009-06-18 04:19:48 51°16.28 2°45.647 304.9 10.9 303 10.7
2009-06-18 04:19:53 51°16.288 2°45.626 307 10.9 301 10.8
2009-06-18 04:19:58 51°16.296 2°45.606 307.2 10.9 303 10.8
2009-06-18 04:20:03 51°16.304 2°45.586 308.5 10.9 304 10.9
2009-06-18 04:20:08 51°16.313 2°45.566 309.2 10.9 304 10.8
2009-06-18 04:20:13 51°16.321 2°45.546 309.4 10.9 304 11.1
2009-06-18 04:20:18 51°16.33 2°45.526 309.8 11 304 11.1
2009-06-18 04:20:23 51°16.339 2°45.506 310 11 305 11.3
2009-06-18 04:20:28 51°16.348 2°45.486 310 10.9 305 11.1
2009-06-18 04:20:33 51°16.357 2°45.466 310.2 10.9 305 11
2009-06-18 04:20:38 51°16.366 2°45.447 310.6 10.9 305 11.3
2009-06-18 04:20:43 51°16.374 2°45.427 310.7 10.9 305 11.1
2009-06-18 04:20:48 51°16.383 2°45.407 311.2 11 305 11.5
2009-06-18 04:20:53 51°16.392 2°45.387 311.3 10.9 306 11.1
2009-06-18 04:20:58 51°16.401 2°45.368 311.8 11 306 11.4
2009-06-18 04:21:03 51°16.41 2°45.348 311.7 10.9 306 11.5
2009-06-18 04:21:08 51°16.419 2°45.329 311.8 10.9 306 11.5
2009-06-18 04:21:13 51°16.428 2°45.309 312.2 11 307 11.6
2009-06-18 04:21:18 51°16.437 2°45.29 312.5 10.9 307 11.7
2009-06-18 04:21:24 51°16.447 2°45.267 312.2 11 306 11.9
2009-06-18 04:21:28 51°16.455 2°45.251 312.3 10.9 306 11.7
2009-06-18 04:21:33 51°16.463 2°45.231 312.2 11 305 11.8
2009-06-18 04:21:38 51°16.472 2°45.212 311.5 11 305 11.7
2009-06-18 04:21:43 51°16.481 2°45.192 310.6 11 305 11.8
2009-06-18 04:21:48 51°16.49 2°45.173 311.1 10.9 306 11.3
2009-06-18 04:21:53 51°16.499 2°45.154 311.8 10.9 305 11.5
2009-06-18 04:21:58 51°16.508 2°45.134 311.6 11 305 11.7
2009-06-18 04:22:04 51°16.518 2°45.11 311.6 11 305 11.8
2009-06-18 04:22:08 51°16.525 2°45.094 311.8 11 305 11.9
2009-06-18 04:22:13 51°16.534 2°45.074 311.8 11 306 11.9
2009-06-18 04:22:18 51°16.543 2°45.053 311.1 11 304 11.8
2009-06-18 04:22:23 51°16.551 2°45.033 310.6 11 305 12.2
2009-06-18 04:22:28 51°16.56 2°45.013 310.5 10.9 304 12
2009-06-18 04:22:33 51°16.569 2°44.994 310 11 305 12
2009-06-18 04:22:38 51°16.578 2°44.974 310.2 11 304 11.9
2009-06-18 04:22:43 51°16.586 2°44.954 310 11 304 11.6
2009-06-18 04:22:48 51°16.595 2°44.933 310.6 11 305 11.8
2009-06-18 04:22:53 51°16.603 2°44.913 310.8 11.1 304 11.6
2009-06-18 04:22:57 51°16.61 2°44.896 310.4 11 304 11.5
2009-06-18 04:23:03 51°16.62 2°44.872 310 11.1 304 12.1
2009-06-18 04:23:08 51°16.629 2°44.852 309.6 11.1 304 12.2
2009-06-18 04:23:13 51°16.638 2°44.832 310 11 305 12.3
2009-06-18 04:23:18 51°16.646 2°44.811 310.4 11 305 12.6
2009-06-18 04:23:23 51°16.654 2°44.791 310.5 11.1 304 12.7
2009-06-18 04:23:28 51°16.663 2°44.771 310.2 11 305 12.7
2009-06-18 04:23:33 51°16.672 2°44.751 310.7 11.1 304 12.8
2009-06-18 04:23:38 51°16.681 2°44.73 310.8 11.1 305 13
2009-06-18 04:23:44 51°16.691 2°44.706 311 11.1 306 13.1
2009-06-18 04:23:48 51°16.698 2°44.69 311.3 11.1 305 13.3
2009-06-18 04:23:53 51°16.707 2°44.67 311.2 11.1 306 13.4
2009-06-18 04:23:58 51°16.716 2°44.65 311.1 11.1 304 13.6
2009-06-18 04:24:03 51°16.725 2°44.63 310.5 11.1 305 13.8
2009-06-18 04:24:08 51°16.734 2°44.61 310.7 11.1 305 13.5
2009-06-18 04:24:13 51°16.743 2°44.59 311.2 11.2 305 13.7
2009-06-18 04:24:18 51°16.752 2°44.57 311.2 11.1 305 13.6
2009-06-18 04:24:24 51°16.762 2°44.546 311.1 11.1 305 14
2009-06-18 04:24:28 51°16.769 2°44.53 311.4 11.1 306 13.9
2009-06-18 04:24:33 51°16.778 2°44.51 311.8 11.1 306 14.2
2009-06-18 04:24:38 51°16.787 2°44.49 311.7 11.1 305 14.4
2009-06-18 04:24:43 51°16.796 2°44.47 311.5 11.1 305 14.6
2009-06-18 04:24:48 51°16.805 2°44.449 311.4 11.2 304 14.9
2009-06-18 04:24:53 51°16.813 2°44.429 311.3 11.2 305 15.2
2009-06-18 04:24:58 51°16.822 2°44.408 311.1 11.2 304 15.3
2009-06-18 04:25:03 51°16.831 2°44.387 310.9 11.3 303 15.4
2009-06-18 04:25:08 51°16.839 2°44.367 310.7 11.2 304 15.3
2009-06-18 04:25:13 51°16.848 2°44.347 311.1 11.2 305 15.6
2009-06-18 04:25:18 51°16.857 2°44.326 311.1 11.2 303 15.4
2009-06-18 04:25:23 51°16.865 2°44.305 310.2 11.2 303 15.8
2009-06-18 04:25:28 51°16.874 2°44.285 310.5 11.2 304 15.8
2009-06-18 04:25:33 51°16.882 2°44.264 310.4 11.2 303 15.9
2009-06-18 04:25:38 51°16.891 2°44.243 310.3 11.2 304 15.8
2009-06-18 04:25:43 51°16.9 2°44.223 310.6 11.2 304 16
2009-06-18 04:25:48 51°16.908 2°44.202 310.6 11.2 303 15.9
2009-06-18 04:25:53 51°16.917 2°44.181 310.2 11.2 303 15.7
2009-06-18 04:25:58 51°16.925 2°44.16 310.1 11.3 304 16.2
2009-06-18 04:26:03 51°16.934 2°44.139 310.7 11.2 304 15.9
2009-06-18 04:26:08 51°16.942 2°44.119 311 11.2 304 15.8
2009-06-18 04:26:13 51°16.951 2°44.098 310.7 11.3 303 15.9
2009-06-18 04:26:18 51°16.959 2°44.077 310.6 11.2 304 15.9
2009-06-18 04:26:23 51°16.968 2°44.056 310.7 11.2 303 15.9
2009-06-18 04:26:28 51°16.977 2°44.036 310.5 11.2 304 15.8
2009-06-18 04:26:33 51°16.985 2°44.015 310.9 11.2 304 16.1
2009-06-18 04:26:38 51°16.994 2°43.995 311.4 11.3 304 16.3
2009-06-18 04:26:44 51°17.004 2°43.97 311.2 11.3 304 15.7
2009-06-18 04:26:48 51°17.011 2°43.953 311 11.3 304 15.8
2009-06-18 04:26:53 51°17.02 2°43.932 310.7 11.3 303 15.3
2009-06-18 04:26:58 51°17.028 2°43.911 310.3 11.3 303 15.2
2009-06-18 04:27:03 51°17.037 2°43.89 310.2 11.3 303 15.1
2009-06-18 04:27:08 51°17.046 2°43.87 310 11.3 304 14.9
2009-06-18 04:27:13 51°17.055 2°43.85 310.8 11.2 304 14.6
2009-06-18 04:27:18 51°17.064 2°43.829 311 11.3 304 14.7
2009-06-18 04:27:23 51°17.072 2°43.808 310.5 11.3 303 14.7
2009-06-18 04:27:28 51°17.081 2°43.787 310.3 11.3 304 14.9
2009-06-18 04:27:33 51°17.089 2°43.767 310.6 11.2 304 15
2009-06-18 04:27:38 51°17.098 2°43.746 310.9 11.2 305 15.3
2009-06-18 04:27:43 51°17.106 2°43.725 310.5 11.3 302 15.3
2009-06-18 04:27:48 51°17.115 2°43.704 310 11.2 304 15.1
2009-06-18 04:27:53 51°17.123 2°43.684 309.9 11.2 303 15
2009-06-18 04:27:58 51°17.132 2°43.663 310 11.2 304 14.9
2009-06-18 04:28:03 51°17.14 2°43.642 310.3 11.2 303 14.5
2009-06-18 04:28:08 51°17.149 2°43.622 310.6 11.3 304 15.4
2009-06-18 04:28:13 51°17.158 2°43.601 310.3 11.3 303 15.6
2009-06-18 04:28:18 51°17.167 2°43.581 310.6 11.3 304 15.5
2009-06-18 04:28:23 51°17.176 2°43.56 310.5 11.3 305 15.2
2009-06-18 04:28:28 51°17.184 2°43.539 310.9 11.3 304 15.2
2009-06-18 04:28:33 51°17.193 2°43.519 310.3 11.3 304 15.3
2009-06-18 04:28:38 51°17.202 2°43.498 310 11.2 303 14.9
2009-06-18 04:28:43 51°17.21 2°43.477 309.3 11.2 304 14.8
2009-06-18 04:28:48 51°17.219 2°43.456 309.7 11.2 304 14.7
2009-06-18 04:28:53 51°17.228 2°43.436 310 11.2 304 13.6
2009-06-18 04:28:58 51°17.236 2°43.415 310.1 11.2 304 14
2009-06-18 04:29:03 51°17.245 2°43.395 310 11.2 304 14.7
2009-06-18 04:29:08 51°17.254 2°43.374 309.9 11.2 304 14.5
2009-06-18 04:29:13 51°17.263 2°43.354 310.2 11.2 305 14
2009-06-18 04:29:18 51°17.271 2°43.334 310.3 11.2 305 13.8
2009-06-18 04:29:23 51°17.28 2°43.313 310.6 11.2 304 13.2
2009-06-18 04:29:28 51°17.289 2°43.293 310.3 11.2 304 12.4
2009-06-18 04:29:33 51°17.298 2°43.272 310.2 11.2 305 11.5
2009-06-18 04:29:38 51°17.307 2°43.252 310.8 11.2 304 13.2
2009-06-18 04:29:43 51°17.315 2°43.232 310.6 11.2 304 13.8
2009-06-18 04:29:48 51°17.324 2°43.211 310 11.4 304 13.3
2009-06-18 04:29:53 51°17.333 2°43.191 309.5 11.3 304 12
2009-06-18 04:29:58 51°17.342 2°43.17 309.8 11.1 305 11.4
2009-06-18 04:30:03 51°17.35 2°43.15 309.8 11.1 305 11
2009-06-18 04:30:08 51°17.359 2°43.13 310 11.1 305 12.9
2009-06-18 04:30:13 51°17.368 2°43.11 309.6 11.2 304 12.8
2009-06-18 04:30:18 51°17.377 2°43.089 309.3 11.2 305 12.2
2009-06-18 04:30:24 51°17.387 2°43.065 309.3 11.2 305 12
2009-06-18 04:30:28 51°17.395 2°43.049 310 11.1 306 11.9
2009-06-18 04:30:33 51°17.403 2°43.029 310.5 11.1 305 11.5
2009-06-18 04:30:38 51°17.412 2°43.008 310.3 11.2 305 11.7
2009-06-18 04:30:43 51°17.421 2°42.988 309.9 11.1 306 11.3
2009-06-18 04:30:48 51°17.43 2°42.968 310.3 11.1 306 10.9
2009-06-18 04:30:53 51°17.439 2°42.948 310.7 11.1 306 10
2009-06-18 04:30:58 51°17.449 2°42.929 310.8 11.1 306 10.9
2009-06-18 04:31:03 51°17.458 2°42.909 310.9 11.1 306 11.2
2009-06-18 04:31:08 51°17.467 2°42.889 310.8 11.1 307 11.1
2009-06-18 04:31:13 51°17.476 2°42.869 310.5 11.1 306 12.6
2009-06-18 04:31:18 51°17.485 2°42.849 309.9 11.2 306 13.1
2009-06-18 04:31:23 51°17.494 2°42.829 309.5 11.2 305 13.5
2009-06-18 04:31:28 51°17.503 2°42.809 309.3 11.2 306 14.2
2009-06-18 04:31:33 51°17.512 2°42.788 309.6 11.2 305 14.4
2009-06-18 04:31:38 51°17.521 2°42.768 310 11.3 307 15.4
2009-06-18 04:31:43 51°17.531 2°42.748 310.5 11.3 306 16.5
2009-06-18 04:31:48 51°17.54 2°42.728 310.6 11.3 307 18.1
2009-06-18 04:31:53 51°17.549 2°42.708 310.9 11.3 306 20.1
2009-06-18 04:31:58 51°17.559 2°42.688 311 11.3 306 21
2009-06-18 04:32:03 51°17.568 2°42.667 310.5 11.4 306 21.3
2009-06-18 04:32:08 51°17.577 2°42.647 310 11.3 307 21.4
2009-06-18 04:32:13 51°17.586 2°42.627 310.6 11.3 307 22.3
2009-06-18 04:32:18 51°17.596 2°42.607 310.5 11.3 306 21.8
2009-06-18 04:32:23 51°17.605 2°42.587 310 11.3 306 22.3
2009-06-18 04:32:28 51°17.614 2°42.567 310 11.3 306 22.3
2009-06-18 04:32:33 51°17.623 2°42.546 309.8 11.3 305 22.5
2009-06-18 04:32:38 51°17.633 2°42.526 309.5 11.4 306 23
2009-06-18 04:32:44 51°17.644 2°42.502 310 11.4 306 23.4
2009-06-18 04:32:48 51°17.651 2°42.485 309.4 11.4 305 23.5
2009-06-18 04:32:53 51°17.66 2°42.465 309.3 11.3 306 23.5
2009-06-18 04:32:58 51°17.669 2°42.444 309.5 11.3 305 23.8
2009-06-18 04:33:03 51°17.678 2°42.424 309.8 11.3 305 23.8
2009-06-18 04:33:08 51°17.687 2°42.403 309.4 11.3 306 23.8
2009-06-18 04:33:13 51°17.696 2°42.383 309.7 11.3 306 23.9
2009-06-18 04:33:18 51°17.706 2°42.362 310 11.3 306 23.8
2009-06-18 04:33:24 51°17.717 2°42.338 310 11.3 306 24
2009-06-18 04:33:28 51°17.724 2°42.322 310.7 11.3 307 24.1
2009-06-18 04:33:33 51°17.733 2°42.302 310.7 11.3 306 24.2
2009-06-18 04:33:38 51°17.742 2°42.282 310 11.3 306 24.3
2009-06-18 04:33:43 51°17.752 2°42.261 309.9 11.4 306 24.3
2009-06-18 04:33:48 51°17.761 2°42.24 310.2 11.4 305 24.2
2009-06-18 04:33:53 51°17.77 2°42.22 309.8 11.4 306 24.4
2009-06-18 04:33:58 51°17.779 2°42.199 309.9 11.4 307 24.3
2009-06-18 04:34:03 51°17.789 2°42.179 310.7 11.3 307 24.6
2009-06-18 04:34:08 51°17.797 2°42.159 310 11.3 305 24.5
2009-06-18 04:34:13 51°17.807 2°42.138 309.8 11.3 306 24.6
2009-06-18 04:34:18 51°17.816 2°42.118 310 11.4 305 24.6
2009-06-18 04:34:23 51°17.825 2°42.097 310 11.4 304 24.4
2009-06-18 04:34:28 51°17.834 2°42.076 309.3 11.4 305 24.8
2009-06-18 04:34:33 51°17.843 2°42.056 309.3 11.3 305 24.3
2009-06-18 04:34:38 51°17.852 2°42.035 309.9 11.3 305 24.5
2009-06-18 04:34:43 51°17.861 2°42.015 310 11.4 304 24.8
2009-06-18 04:34:48 51°17.87 2°41.994 309.7 11.3 305 24.5
2009-06-18 04:34:53 51°17.878 2°41.973 309.8 11.4 304 24.6
2009-06-18 04:34:58 51°17.887 2°41.953 309.6 11.4 306 24.6
2009-06-18 04:35:03 51°17.896 2°41.932 310.5 11.4 304 24.6
2009-06-18 04:35:08 51°17.906 2°41.912 310.6 11.4 305 24.7
2009-06-18 04:35:13 51°17.915 2°41.891 310 11.4 305 24.4
2009-06-18 04:35:18 51°17.924 2°41.871 310.7 11.4 305 24.5
2009-06-18 04:35:23 51°17.933 2°41.85 311.1 11.4 306 24.6
2009-06-18 04:35:28 51°17.942 2°41.83 310.7 11.4 305 24.5
2009-06-18 04:35:33 51°17.952 2°41.809 311.5 11.3 306 24.3
2009-06-18 04:35:38 51°17.961 2°41.788 310.4 11.4 305 24.2
2009-06-18 04:35:43 51°17.969 2°41.768 309.8 11.4 304 24.4
2009-06-18 04:35:48 51°17.979 2°41.747 310.4 11.3 305 24.3
2009-06-18 04:35:53 51°17.987 2°41.726 310.2 11.5 302 24.1
2009-06-18 04:35:58 51°17.996 2°41.705 309.6 11.4 304 23.9
2009-06-18 04:36:03 51°18.005 2°41.684 309.6 11.4 303 23.9
2009-06-18 04:36:08 51°18.013 2°41.663 309 11.4 303 24
2009-06-18 04:36:13 51°18.022 2°41.641 308.6 11.4 303 24
2009-06-18 04:36:18 51°18.031 2°41.621 309.3 11.4 304 23.8
2009-06-18 04:36:23 51°18.04 2°41.6 309.6 11.4 303 23.6
2009-06-18 04:36:28 51°18.048 2°41.579 309.3 11.3 304 23.4
2009-06-18 04:36:33 51°18.057 2°41.558 309.6 11.3 304 23.4
2009-06-18 04:36:38 51°18.066 2°41.537 309.5 11.3 304 23.5
2009-06-18 04:36:43 51°18.075 2°41.516 309.8 11.4 304 23.6
2009-06-18 04:36:48 51°18.084 2°41.496 309.9 11.3 305 23.1
2009-06-18 04:36:53 51°18.093 2°41.475 309.9 11.4 304 23.2
2009-06-18 04:36:58 51°18.101 2°41.454 309.6 11.3 305 22.6
2009-06-18 04:37:03 51°18.111 2°41.433 310.1 11.3 305 21.9
2009-06-18 04:37:08 51°18.12 2°41.413 310.7 11.3 305 22.5
2009-06-18 04:37:13 51°18.129 2°41.392 311.3 11.4 306 22.4
2009-06-18 04:37:18 51°18.138 2°41.371 311.1 11.4 305 22.3
2009-06-18 04:37:23 51°18.147 2°41.351 310.5 11.4 304 22.4
2009-06-18 04:37:28 51°18.156 2°41.33 310.3 11.4 304 22.5
2009-06-18 04:37:33 51°18.164 2°41.309 310.1 11.4 304 22
2009-06-18 04:37:38 51°18.173 2°41.288 310 11.4 305 22.1
2009-06-18 04:37:43 51°18.182 2°41.268 310.9 11.4 305 21.9
2009-06-18 04:37:48 51°18.191 2°41.247 310.8 11.4 304 21.4
2009-06-18 04:37:53 51°18.2 2°41.226 310.5 11.4 305 18.4
2009-06-18 04:37:58 51°18.209 2°41.205 310.2 11.4 304 19.3
2009-06-18 04:38:03 51°18.218 2°41.184 310 11.4 305 20
2009-06-18 04:38:08 51°18.228 2°41.164 310.6 11.4 306 20
2009-06-18 04:38:13 51°18.237 2°41.144 311.3 11.4 306 20.6
2009-06-18 04:38:18 51°18.246 2°41.123 310.9 11.4 305 20.6
2009-06-18 04:38:24 51°18.256 2°41.099 310.4 11.3 305 20.9
2009-06-18 04:38:28 51°18.264 2°41.082 310.7 11.4 305 20.4
2009-06-18 04:38:33 51°18.273 2°41.062 310.8 11.4 306 20.2
2009-06-18 04:38:38 51°18.282 2°41.042 311.3 11.4 306 19.6
2009-06-18 04:38:43 51°18.291 2°41.021 311.5 11.4 306 19.6
2009-06-18 04:38:48 51°18.301 2°41.001 311.5 11.3 306 18.2
2009-06-18 04:38:53 51°18.31 2°40.981 311.4 11.3 307 16.9
2009-06-18 04:38:58 51°18.32 2°40.961 311.9 11.3 306 16.4
2009-06-18 04:39:03 51°18.329 2°40.941 311.6 11.3 306 15.6
2009-06-18 04:39:08 51°18.338 2°40.92 311.3 11.3 306 15.6
2009-06-18 04:39:13 51°18.347 2°40.9 311.1 11.3 307 16.1
2009-06-18 04:39:18 51°18.356 2°40.88 311.5 11.4 306 17.1
2009-06-18 04:39:23 51°18.366 2°40.859 311.2 11.4 307 15.7
2009-06-18 04:39:28 51°18.375 2°40.839 311.2 11.3 307 12.9
2009-06-18 04:39:33 51°18.384 2°40.819 311.2 11.3 306 15.7
2009-06-18 04:39:38 51°18.393 2°40.799 311.1 11.3 306 17.2
2009-06-18 04:39:43 51°18.403 2°40.778 310.6 11.4 306 18.5
2009-06-18 04:39:48 51°18.412 2°40.758 310.8 11.4 306 18.8
2009-06-18 04:39:53 51°18.421 2°40.737 310.7 11.4 306 19
2009-06-18 04:39:58 51°18.431 2°40.717 310.5 11.4 306 19
2009-06-18 04:40:03 51°18.44 2°40.696 310.5 11.4 306 19.6
2009-06-18 04:40:08 51°18.45 2°40.676 310.7 11.4 307 20.3
2009-06-18 04:40:13 51°18.459 2°40.656 311.1 11.4 307 19.7
2009-06-18 04:40:18 51°18.468 2°40.636 311 11.4 306 17
2009-06-18 04:40:24 51°18.48 2°40.612 310.8 11.3 307 12
2009-06-18 04:40:28 51°18.487 2°40.596 310.9 11.3 307 15.9
2009-06-18 04:40:33 51°18.496 2°40.575 310.9 11.4 307 17.9
2009-06-18 04:40:38 51°18.506 2°40.555 310.8 11.4 306 18.7
2009-06-18 04:40:43 51°18.515 2°40.535 310.7 11.5 307 18.9
2009-06-18 04:40:48 51°18.525 2°40.514 310.8 11.4 307 17.9
2009-06-18 04:40:53 51°18.534 2°40.494 310.8 11.4 307 15.5
2009-06-18 04:40:58 51°18.544 2°40.474 311.1 11.4 307 12.2
2009-06-18 04:41:03 51°18.553 2°40.454 310.9 11.4 306 14
2009-06-18 04:41:08 51°18.563 2°40.434 310.2 11.4 306 14
2009-06-18 04:41:13 51°18.572 2°40.413 309.8 11.4 305 11.9
2009-06-18 04:41:18 51°18.581 2°40.393 309.4 11.3 307 14.2
2009-06-18 04:41:23 51°18.59 2°40.372 310 11.4 306 17.7
2009-06-18 04:41:28 51°18.6 2°40.352 310.4 11.4 308 20.1
2009-06-18 04:41:33 51°18.609 2°40.332 310.4 11.5 306 21.5
2009-06-18 04:41:38 51°18.619 2°40.311 310.5 11.5 307 22.3
2009-06-18 04:41:43 51°18.628 2°40.291 310.5 11.5 307 22.6
2009-06-18 04:41:48 51°18.638 2°40.271 310.5 11.5 307 23
2009-06-18 04:41:53 51°18.647 2°40.251 310.5 11.5 307 23.1
2009-06-18 04:41:57 51°18.655 2°40.234 310.6 11.5 307 22.8
2009-06-18 04:42:03 51°18.666 2°40.21 310.8 11.5 307 24.4
2009-06-18 04:42:08 51°18.676 2°40.19 309.9 11.5 305 24.1
2009-06-18 04:42:13 51°18.685 2°40.169 309.8 11.5 306 24.7
2009-06-18 04:42:18 51°18.694 2°40.148 309.4 11.5 305 24.5
2009-06-18 04:42:23 51°18.703 2°40.127 308.9 11.5 306 24.2
2009-06-18 04:42:28 51°18.713 2°40.107 309.4 11.5 306 24.6
2009-06-18 04:42:33 51°18.722 2°40.086 310 11.5 307 25
2009-06-18 04:42:38 51°18.732 2°40.066 310 11.5 306 25.6
2009-06-18 04:42:44 51°18.743 2°40.042 310.1 11.4 307 24.7
2009-06-18 04:42:48 51°18.751 2°40.026 310.3 11.4 306 24.8
2009-06-18 04:42:53 51°18.76 2°40.005 309.5 11.4 306 25
2009-06-18 04:42:58 51°18.769 2°39.985 309.6 11.5 306 24.3
2009-06-18 04:43:03 51°18.779 2°39.964 309.6 11.5 306 24.8
2009-06-18 04:43:08 51°18.788 2°39.944 309.6 11.5 306 24.2
2009-06-18 04:43:13 51°18.797 2°39.923 310 11.4 306 24.6
2009-06-18 04:43:18 51°18.807 2°39.903 310.6 11.5 306 24.4
2009-06-18 04:43:23 51°18.816 2°39.882 310.3 11.5 307 24.6
2009-06-18 04:43:28 51°18.826 2°39.862 310.2 11.5 306 24.6
2009-06-18 04:43:33 51°18.835 2°39.841 310.1 11.4 306 24.5
2009-06-18 04:43:38 51°18.844 2°39.821 309.8 11.4 306 24.4
2009-06-18 04:43:43 51°18.854 2°39.8 310.3 11.4 307 24.4
2009-06-18 04:43:48 51°18.863 2°39.78 310.7 11.5 306 24.4
2009-06-18 04:43:53 51°18.872 2°39.759 310.5 11.4 306 24.6
2009-06-18 04:43:58 51°18.882 2°39.739 310.5 11.4 307 24.9
2009-06-18 04:44:03 51°18.891 2°39.719 310.7 11.3 307 24.6
2009-06-18 04:44:08 51°18.901 2°39.699 311.1 11.4 307 24.8
2009-06-18 04:44:13 51°18.91 2°39.679 310.8 11.4 306 25.1
2009-06-18 04:44:18 51°18.92 2°39.659 310.2 11.4 306 25
2009-06-18 04:44:24 51°18.931 2°39.634 310 11.4 305 24.8
2009-06-18 04:44:28 51°18.938 2°39.618 309.7 11.4 306 25
2009-06-18 04:44:33 51°18.947 2°39.597 309.8 11.4 306 25.2
2009-06-18 04:44:38 51°18.957 2°39.576 310 11.4 306 25.2
2009-06-18 04:44:43 51°18.966 2°39.556 310.4 11.4 306 25.2
2009-06-18 04:44:48 51°18.975 2°39.536 310.2 11.4 305 25.7
2009-06-18 04:44:53 51°18.984 2°39.515 309.4 11.4 305 25.7
2009-06-18 04:44:58 51°18.993 2°39.494 309.6 11.4 305 25.9
2009-06-18 04:45:04 51°19.004 2°39.469 308.6 11.4 304 26.2
2009-06-18 04:45:08 51°19.011 2°39.453 309.1 11.4 306 26.2
2009-06-18 04:45:13 51°19.02 2°39.433 309.6 11.3 305 26.5
2009-06-18 04:45:18 51°19.03 2°39.412 309.8 11.3 306 26.5
2009-06-18 04:45:23 51°19.039 2°39.392 310 11.4 305 26.6
2009-06-18 04:45:28 51°19.048 2°39.371 310.3 11.4 305 26.9
2009-06-18 04:45:33 51°19.057 2°39.351 310.3 11.4 306 27.2
2009-06-18 04:45:38 51°19.066 2°39.33 310.6 11.4 306 27.1
2009-06-18 04:45:43 51°19.076 2°39.31 311 11.4 306 27.2
2009-06-18 04:45:48 51°19.085 2°39.289 310.7 11.4 306 27.4
2009-06-18 04:45:53 51°19.094 2°39.269 310.6 11.4 306 27.6
2009-06-18 04:45:58 51°19.104 2°39.248 310.2 11.4 305 27.9
2009-06-18 04:46:03 51°19.113 2°39.228 310 11.4 306 27.9
2009-06-18 04:46:08 51°19.122 2°39.207 310.6 11.4 306 28.2
2009-06-18 04:46:13 51°19.131 2°39.187 310.9 11.4 306 28.6
2009-06-18 04:46:18 51°19.14 2°39.166 310.7 11.4 306 28.7
2009-06-18 04:46:23 51°19.15 2°39.146 311.1 11.4 307 28.8
2009-06-18 04:46:28 51°19.159 2°39.125 311 11.4 306 28.8
2009-06-18 04:46:33 51°19.168 2°39.105 310.6 11.4 306 28.9
2009-06-18 04:46:38 51°19.178 2°39.085 310.7 11.4 306 29.1
2009-06-18 04:46:43 51°19.187 2°39.064 310.5 11.4 306 28.9
2009-06-18 04:46:48 51°19.196 2°39.044 310.6 11.4 306 29
2009-06-18 04:46:53 51°19.206 2°39.023 310.3 11.4 306 29.1
2009-06-18 04:46:58 51°19.215 2°39.002 310.6 11.4 306 28.9
2009-06-18 04:47:03 51°19.224 2°38.982 310.5 11.4 306 29.1
2009-06-18 04:47:08 51°19.234 2°38.962 310.6 11.4 307 29.1
2009-06-18 04:47:13 51°19.243 2°38.942 310.8 11.3 307 29.1
2009-06-18 04:47:18 51°19.252 2°38.921 310.9 11.4 306 29
2009-06-18 04:47:24 51°19.264 2°38.897 310.7 11.4 306 29.2
2009-06-18 04:47:28 51°19.271 2°38.88 309.8 11.3 306 28.9
2009-06-18 04:47:33 51°19.28 2°38.86 310 11.3 306 29
2009-06-18 04:47:38 51°19.289 2°38.839 309.7 11.4 305 29
2009-06-18 04:47:43 51°19.298 2°38.819 309.6 11.4 304 29
2009-06-18 04:47:48 51°19.307 2°38.798 309 11.4 305 29
2009-06-18 04:47:53 51°19.316 2°38.777 309.3 11.4 305 28.7
2009-06-18 04:47:58 51°19.325 2°38.756 309.7 11.4 305 28.4
2009-06-18 04:48:03 51°19.335 2°38.735 309.4 11.4 304 28.3
2009-06-18 04:48:08 51°19.344 2°38.715 309 11.4 305 27.8
2009-06-18 04:48:13 51°19.353 2°38.694 308.6 11.3 306 28
2009-06-18 04:48:18 51°19.362 2°38.674 309.3 11.4 305 27.9
2009-06-18 04:48:23 51°19.371 2°38.653 309.7 11.3 305 27.2
2009-06-18 04:48:28 51°19.38 2°38.632 309.3 11.4 304 27.1
2009-06-18 04:48:33 51°19.389 2°38.612 309.3 11.4 305 26.9
2009-06-18 04:48:38 51°19.398 2°38.591 310 11.4 305 26.8
2009-06-18 04:48:43 51°19.407 2°38.571 309.8 11.4 306 26.7
2009-06-18 04:48:48 51°19.416 2°38.55 310.5 11.5 305 26.4
2009-06-18 04:48:53 51°19.426 2°38.53 310.4 11.3 306 26
2009-06-18 04:48:58 51°19.435 2°38.509 310 11.3 306 26.1
2009-06-18 04:49:04 51°19.446 2°38.485 310.6 11.3 306 25.6
2009-06-18 04:49:08 51°19.453 2°38.468 310.7 11.4 304 25.5
2009-06-18 04:49:13 51°19.462 2°38.448 309.6 11.3 305 25.2
2009-06-18 04:49:18 51°19.471 2°38.427 309.8 11.4 304 25.1
2009-06-18 04:49:23 51°19.48 2°38.406 309.7 11.3 306 24.2
2009-06-18 04:49:28 51°19.489 2°38.385 310 11.3 305 24.2
2009-06-18 04:49:33 51°19.498 2°38.365 310.5 11.3 306 24
2009-06-18 04:49:38 51°19.507 2°38.344 310.5 11.4 305 24.1
2009-06-18 04:49:43 51°19.516 2°38.324 310.9 11.3 306 24.1
2009-06-18 04:49:48 51°19.525 2°38.304 311.2 11.4 305 24.3
2009-06-18 04:49:53 51°19.535 2°38.283 310.4 11.4 305 23.9
2009-06-18 04:49:57 51°19.542 2°38.267 310.2 11.4 305 23.5
2009-06-18 04:50:03 51°19.553 2°38.242 310.1 11.3 305 23.6
2009-06-18 04:50:08 51°19.562 2°38.222 310 11.4 304 23.5
2009-06-18 04:50:13 51°19.57 2°38.201 309.7 11.3 305 22.6
2009-06-18 04:50:18 51°19.579 2°38.18 309.7 11.3 306 21.2
2009-06-18 04:50:23 51°19.589 2°38.16 310.4 11.3 305 22.6
2009-06-18 04:50:29 51°19.6 2°38.136 310.7 11.3 306 23.6
2009-06-18 04:50:33 51°19.607 2°38.12 310.9 11.3 307 23.8
2009-06-18 04:50:37 51°19.614 2°38.103 311.5 11.3 305 23.6
2009-06-18 04:50:43 51°19.625 2°38.079 310.7 11.3 306 23.6
2009-06-18 04:50:48 51°19.634 2°38.058 310.4 11.2 306 23.4
2009-06-18 04:50:53 51°19.644 2°38.038 311 11.3 306 23.4
2009-06-18 04:50:58 51°19.653 2°38.018 310.5 11.3 305 22.8
2009-06-18 04:51:03 51°19.662 2°37.998 309.8 11.3 306 22.4
2009-06-18 04:51:08 51°19.671 2°37.977 310.7 11.3 305 21.4
2009-06-18 04:51:13 51°19.68 2°37.957 310 11.3 304 22.2
2009-06-18 04:51:17 51°19.687 2°37.941 310.2 11.3 306 23
2009-06-18 04:51:23 51°19.698 2°37.916 310.7 11.3 305 23
2009-06-18 04:51:28 51°19.707 2°37.896 310.1 11.3 305 21.7
2009-06-18 04:51:33 51°19.716 2°37.875 310.4 11.3 306 22.6
2009-06-18 04:51:37 51°19.724 2°37.859 310.6 11.4 306 22.9
2009-06-18 04:51:43 51°19.735 2°37.835 311.1 11.3 307 22.9
2009-06-18 04:51:48 51°19.744 2°37.814 310.4 11.4 305 23.2
2009-06-18 04:51:53 51°19.754 2°37.794 310.7 11.3 307 22.9
2009-06-18 04:51:57 51°19.761 2°37.778 310.7 11.4 305 23
2009-06-18 04:52:03 51°19.772 2°37.754 310.7 11.4 306 22.9
2009-06-18 04:52:08 51°19.781 2°37.733 310.8 11.4 306 22.8
2009-06-18 04:52:13 51°19.791 2°37.713 310.7 11.3 307 22.6
2009-06-18 04:52:18 51°19.8 2°37.693 310.7 11.3 307 23
2009-06-18 04:52:23 51°19.809 2°37.673 311.3 11.3 307 23.1
2009-06-18 04:52:28 51°19.819 2°37.653 311 11.4 306 23
2009-06-18 04:52:33 51°19.828 2°37.632 310.4 11.4 305 23.1
2009-06-18 04:52:38 51°19.837 2°37.612 310 11.4 306 23.1
2009-06-18 04:52:43 51°19.847 2°37.591 310.2 11.4 306 23.1
2009-06-18 04:52:48 51°19.856 2°37.571 310.7 11.4 306 22.8
2009-06-18 04:52:53 51°19.865 2°37.55 310.5 11.4 306 23.2
2009-06-18 04:52:58 51°19.875 2°37.53 310.6 11.4 307 22.9
2009-06-18 04:53:04 51°19.886 2°37.506 310.6 11.4 306 22.6
2009-06-18 04:53:08 51°19.893 2°37.489 310.1 11.4 307 23.2
2009-06-18 04:53:13 51°19.903 2°37.469 310.6 11.4 306 22.2
2009-06-18 04:53:18 51°19.912 2°37.449 310.5 11.4 307 22.1
2009-06-18 04:53:23 51°19.922 2°37.428 311 11.4 307 22.5
2009-06-18 04:53:28 51°19.931 2°37.408 311 11.4 307 23.1
2009-06-18 04:53:33 51°19.941 2°37.388 310.6 11.4 307 23.4
2009-06-18 04:53:38 51°19.95 2°37.368 309.8 11.4 306 23.2
2009-06-18 04:53:43 51°19.959 2°37.347 309.8 11.4 307 22.9
2009-06-18 04:53:48 51°19.969 2°37.327 310.2 11.4 306 22.6
2009-06-18 04:53:53 51°19.978 2°37.306 310 11.4 306 21.5
2009-06-18 04:53:57 51°19.986 2°37.29 310 11.4 307 21.3
2009-06-18 04:54:03 51°19.997 2°37.266 310.3 11.4 307 22.2
2009-06-18 04:54:08 51°20.007 2°37.245 310.6 11.4 307 22.5
2009-06-18 04:54:13 51°20.016 2°37.225 310.4 11.4 307 22.7
2009-06-18 04:54:18 51°20.026 2°37.205 310.5 11.4 307 22.8
2009-06-18 04:54:23 51°20.035 2°37.184 310 11.4 306 22.6
2009-06-18 04:54:28 51°20.044 2°37.164 309.3 11.4 306 22.7
2009-06-18 04:54:33 51°20.053 2°37.143 309.3 11.4 305 22.7
2009-06-18 04:54:37 51°20.061 2°37.127 309.3 11.4 306 22.4
2009-06-18 04:54:43 51°20.072 2°37.103 309.3 11.4 306 22.9
2009-06-18 04:54:48 51°20.081 2°37.082 309.7 11.3 307 22.6
2009-06-18 04:54:53 51°20.091 2°37.062 309.8 11.4 306 22.5
2009-06-18 04:54:58 51°20.1 2°37.042 309.8 11.3 306 22.3
2009-06-18 04:55:03 51°20.109 2°37.021 309.4 11.3 306 22.1
2009-06-18 04:55:08 51°20.118 2°37.001 309.7 11.3 306 21.2
2009-06-18 04:55:13 51°20.128 2°36.981 310.7 11.2 307 20.5
2009-06-18 04:55:17 51°20.135 2°36.964 310.3 11.3 306 22.6
2009-06-18 04:55:23 51°20.146 2°36.941 310.4 11.3 307 22.8
2009-06-18 04:55:28 51°20.155 2°36.921 310.9 11.3 307 22.6
2009-06-18 04:55:33 51°20.165 2°36.901 311.2 11.3 308 22.5
2009-06-18 04:55:37 51°20.172 2°36.885 310.7 11.3 307 21.8
2009-06-18 04:55:43 51°20.183 2°36.86 310.3 11.3 304 20.7
2009-06-18 04:55:48 51°20.192 2°36.84 309.1 11.3 306 21.3
2009-06-18 04:55:53 51°20.201 2°36.819 309.3 11.3 305 21.1
2009-06-18 04:55:58 51°20.21 2°36.799 309.3 11.3 305 21.7
2009-06-18 04:56:03 51°20.219 2°36.779 309.6 11.3 305 21.8
2009-06-18 04:56:08 51°20.228 2°36.758 310 11.3 306 21.6
2009-06-18 04:56:13 51°20.237 2°36.738 309.9 11.3 305 23
2009-06-18 04:56:18 51°20.246 2°36.717 309.3 11.3 305 23.1
2009-06-18 04:56:23 51°20.255 2°36.697 309.3 11.3 305 23.1
2009-06-18 04:56:28 51°20.264 2°36.677 310 11.3 306 22.7
2009-06-18 04:56:33 51°20.273 2°36.656 310 11.3 306 23.1
2009-06-18 04:56:38 51°20.283 2°36.636 310 11.2 306 23
2009-06-18 04:56:43 51°20.291 2°36.616 310.4 11.3 304 22.8
2009-06-18 04:56:48 51°20.3 2°36.595 310 11.3 306 22.3
2009-06-18 04:56:53 51°20.31 2°36.575 310.3 11.2 306 22.1
2009-06-18 04:56:58 51°20.319 2°36.555 310 11.3 306 22.3
2009-06-18 04:57:03 51°20.328 2°36.535 310.7 11.3 306 22.1
2009-06-18 04:57:08 51°20.337 2°36.515 310.8 11.3 306 21.8
2009-06-18 04:57:13 51°20.347 2°36.495 310.8 11.3 307 22
2009-06-18 04:57:18 51°20.356 2°36.474 310.9 11.3 306 21.6
2009-06-18 04:57:23 51°20.365 2°36.454 310.9 11.3 306 21.7
2009-06-18 04:57:28 51°20.374 2°36.434 310.9 11.3 306 21.8
2009-06-18 04:57:33 51°20.384 2°36.413 310.8 11.3 307 21.6
2009-06-18 04:57:38 51°20.393 2°36.393 311.5 11.3 306 21.2
2009-06-18 04:57:43 51°20.403 2°36.373 311.5 11.2 307 21.8
2009-06-18 04:57:48 51°20.412 2°36.353 310.7 11.3 306 21.1
2009-06-18 04:57:53 51°20.421 2°36.332 311.2 11.2 307 21.4
2009-06-18 04:57:58 51°20.43 2°36.311 310.6 11.3 305 20.9
2009-06-18 04:58:03 51°20.44 2°36.29 310.3 11.3 306 20.4
2009-06-18 04:58:08 51°20.449 2°36.27 310.4 11.3 305 20.8
2009-06-18 04:58:13 51°20.458 2°36.249 309.9 11.3 305 20.5
2009-06-18 04:58:18 51°20.467 2°36.228 309.7 11.4 304 20.3
2009-06-18 04:58:23 51°20.476 2°36.208 310.6 11.3 307 20.2
2009-06-18 04:58:28 51°20.485 2°36.188 310.7 11.3 305 20.6
2009-06-18 04:58:33 51°20.495 2°36.167 310.7 11.3 306 20.6
2009-06-18 04:58:38 51°20.504 2°36.147 310.7 11.3 306 20.4